This demonstration page uses our WeatherBlox Daily Observations layout. Learn more.

Left ArrowRight Arrow

39.12711, -84.51439

Hourly Observations for May 5, 2021

Temp ( °F °C ) Dew Point ( °F °C ) Humidity (%) Winds ( mph kmh ) Pressure ( in mb ) Visibility ( mi km ) Precip ( " mm )
12:53 am 00:53 Cloudy 58 14.4 53 11.7 84 84 N 7 11 29.82 1010 10 16 N/A
1:53 am 01:53 Cloudy 57 13.9 52 11.1 83 83 N 8 13 29.80 1009 10 16 N/A
2:53 am 02:53 Cloudy with Light Rain 55 12.8 52 11.1 90 90 NNW 9 15 29.83 1010 9 14 0.00 0.00
3:44 am 03:44 Cloudy with Light Rain 53 11.7 51 10.6 93 93 N 10 17 29.84 1011 9 14 0.03 0.76
3:53 am 03:53 Cloudy with Light Rain 53 11.7 52 11.1 96 96 NNW 9 15 29.83 1010 8 13 0.04 1.02
4:53 am 04:53 Cloudy 53 11.7 51 10.6 93 93 NNW 12 19 29.86 1011 10 16 0.01 0.25
5:09 am 05:09 Cloudy 53 11.7 50 10 89 89 NNW 9 15 29.87 1012 10 16 N/A
5:53 am 05:53 Cloudy 52 11.1 49 9.4 89 89 N 7 11 29.87 1012 10 16 N/A
6:53 am 06:53 Cloudy 51 10.6 49 9.4 92 92 NNW 8 13 29.91 1013 10 16 0.00 0.00
7:53 am 07:53 Cloudy 52 11.1 49 9.4 89 89 NW 8 13 29.94 1014 10 16 N/A
8:53 am 08:53 Cloudy 52 11.1 49 9.4 89 89 NNW 8 13 29.96 1015 10 16 N/A
9:53 am 09:53 Cloudy 53 11.7 48 8.9 83 83 N 10 17 30.00 1016 10 16 N/A
10:53 am 10:53 Cloudy 55 12.8 47 8.3 74 74 N 10 17 30.02 1017 10 16 N/A
11:25 am 11:25 Cloudy 57 13.9 46 7.8 67 67 N 14 22 30.02 1017 10 16 N/A
11:53 am 11:53 Mostly Cloudy 57 13.9 44 6.7 62 62 NNW 12 19 30.03 1017 10 16 N/A
12:53 pm 12:53 Cloudy 59 15 43 6.1 56 56 NW 10 17 30.04 1017 10 16 N/A
1:53 pm 13:53 Mostly Cloudy 60 15.6 42 5.6 52 52 N 12 19 30.03 1017 10 16 N/A
2:53 pm 14:53 Mostly Cloudy 63 17.2 43 6.1 48 48 NW 12 19 30.05 1018 10 16 N/A
3:53 pm 15:53 Partly Cloudy 62 16.7 40 4.4 44 44 WNW 14 22 30.06 1018 10 16 N/A
4:53 pm 16:53 Mostly Sunny 61 16.1 39 3.9 44 44 WNW 15 24 30.06 1018 10 16 N/A
5:53 pm 17:53 Mostly Cloudy 63 17.2 40 4.4 43 43 NW 13 20 30.07 1018 10 16 N/A
6:53 pm 18:53 Partly Cloudy 59 15 38 3.3 46 46 WNW 8 13 30.09 1019 10 16 N/A
7:53 pm 19:53 Partly Cloudy 58 14.4 36 2.2 44 44 NW 12 19 30.10 1019 10 16 N/A
8:53 pm 20:53 Clear 55 12.8 36 2.2 49 49 NNW 5 7 30.11 1020 10 16 N/A
9:53 pm 21:53 Clear 48 8.9 42 5.6 80 80 N N/A 30.13 1020 10 16 N/A
10:53 pm 22:53 Clear 46 7.8 44 6.7 93 93 N N/A 30.15 1021 10 16 N/A
11:53 pm 23:53 Clear 43 6.1 42 5.6 97 97 N N/A 30.15 1021 10 16 N/A

Powered by AerisWeather